Location: Mexico
(19.4000°N, 99.1500°W)
Time: 05:48:33
(UTC-06:00)

ISS - Pass Details

Date: 17 March 2019
Orbit: 408 x 411 km, 51.6° (Epoch: 24 March)

Event Time Altitude Azimuth Distance (km) Brightness Sun altitude
Rises 19:37:23 0° 198° (SSW) 2,319 0.2 -12.7°
Reaches altitude 10° 19:39:39 10° 186° (S) 1,460 -1.0 -13.3°
Maximum altitude 19:42:29 27° 126° (SE) 817 -2.8 -13.9°
Enters shadow 19:42:50 26° 113° (ESE) 831 -2.8 -14.0°
